Location: Blienschwiller
(48.3416°N, 7.4182°E)
Time: 20:03:30
(UTC+00:00)

Cosmos 2251 Rocket - Pass Details

Date: 18 February 2020
Orbit: 764 x 793 km, 74.0° (Epoch: 05 April)

Event Time Altitude Azimuth Distance (km) Brightness Sun altitude
Exits shadow 05:08:46 22° 270° (W) 1,623 4.5 -14.7°
Maximum altitude 05:10:47 29° 306° (NW) 1,406 4.4 -14.4°
Drops below altitude 10° 05:15:22 10° 6° (N) 2,340 6.1 -13.6°
Sets 05:18:05 0° 17° (NNE) 3,277 7.0 -13.1°
